Simultaneous Nadir Overpasses (SNOs) Predictions

Prediction of SNOs between NOAA-19 and NPP Satellite Orbit:

Table of predicted SNOs for the next 14.0 days since TLE Epoch: 2/6/2021
Index Date (NOAA-19) Time (NOAA-19) Lat,Lon (NOAA-19) SZA (NOAA-19 ) Date (NPP) Time (NPP) Lat,Lon (NPP) SZA (NPP ) Distance(km) Time Diff (sec)
1 02/13/2021 11:57:20 -78.64, 152.23 86.57 02/13/2021 11:58:31 -78.61, 152.23 86.62 2.65 71
2 02/13/2021 12:48:22 78.63, -40.59 93.43 02/13/2021 12:49:17 78.64, -40.64 93.42 1.90 55
3 02/13/2021 13:39:20 -78.65, 126.84 86.59 02/13/2021 13:40:01 -78.62, 126.83 86.64 3.90 41
4 02/13/2021 14:30:22 78.64, -65.98 93.40 02/13/2021 14:30:47 78.65, -66.04 93.40 1.25 25
5 02/13/2021 15:21:21 -78.63, 101.20 86.62 02/13/2021 15:21:32 -78.66, 101.20 86.60 2.87 11
6 02/13/2021 16:12:22 78.66, -91.38 93.38 02/13/2021 16:12:17 78.65, -91.44 93.38 1.53 5
7 02/13/2021 17:03:21 -78.65, 75.81 86.64 02/13/2021 17:03:02 -78.66, 75.80 86.62 1.63 19
8 02/13/2021 17:54:22 78.67,-116.77 93.36 02/13/2021 17:53:47 78.65,-116.84 93.36 2.43 35
9 02/13/2021 18:45:21 -78.66, 50.42 86.66 02/13/2021 18:44:32 -78.67, 50.40 86.63 0.49 49
10 02/13/2021 19:36:22 78.69,-142.17 93.34 02/13/2021 19:35:17 78.66,-142.23 93.35 3.51 65
11 02/13/2021 20:27:16 -78.85, 26.26 86.66 02/13/2021 20:26:06 -78.82, 24.06 86.43 47.62 70



Historial Predications of SNOs between NOAA-19 and NPP
